timestamp,wind_dir_avg,wind_spd_avg,wind_spd_max_dir,wind_spd_gust,battery_voltage,lat,long
2021-07-31 00:04:01+00:00,73.0,6.38,77.0,7.8,12.73,47.59359,-54.27349
2021-07-31 00:14:01+00:00,59.0,5.05,61.0,6.1,12.65,47.59359,-54.27349
2021-07-31 00:24:01+00:00,70.0,6.23,57.0,7.51,12.65,47.59359,-54.27349
2021-07-31 00:34:01+00:00,73.0,4.66,80.0,6.0,12.65,47.59359,-54.27349
2021-07-31 00:44:01+00:00,134.0,8.32,134.0,9.59,12.65,47.59359,-54.27349
2021-07-31 00:54:01+00:00,284.0,8.82,276.0,15.8,12.65,47.59359,-54.27349
2021-07-31 01:04:01+00:00,332.0,5.43,343.0,9.26,12.65,47.59359,-54.27349
2021-07-31 01:14:01+00:00,190.0,8.46,189.0,9.38,12.65,47.59359,-54.27349
2021-07-31 01:24:01+00:00,292.0,5.23,305.0,8.17,12.65,47.59359,-54.27349
2021-07-31 01:34:01+00:00,137.0,6.57,128.0,8.27,12.65,47.59359,-54.27349
2021-07-31 01:44:01+00:00,175.0,9.76,154.0,13.01,12.65,47.59359,-54.27349
2021-07-31 01:54:01+00:00,176.0,6.89,174.0,12.53,12.65,47.59359,-54.27349
2021-07-31 02:04:01+00:00,12.0,2.6,18.0,2.93,12.65,47.59359,-54.27349
2021-07-31 02:14:01+00:00,193.0,2.69,210.0,5.61,12.65,47.59359,-54.27349
2021-07-31 02:24:01+00:00,194.0,11.54,192.0,14.53,12.65,47.59359,-54.27349
2021-07-31 02:34:01+00:00,195.0,13.32,195.0,15.46,12.65,47.59359,-54.27349
2021-07-31 02:44:01+00:00,189.0,12.12,187.0,15.49,12.65,47.59359,-54.27349
2021-07-31 02:54:01+00:00,193.0,13.56,185.0,19.29,12.65,47.59359,-54.27349
2021-07-31 03:04:01+00:00,210.0,14.39,210.0,17.06,12.65,47.59359,-54.27349
2021-07-31 03:14:00+00:00,201.0,8.8,207.0,10.39,12.65,47.59359,-54.27349
2021-07-31 03:24:00+00:00,199.0,9.44,199.0,11.19,12.65,47.59359,-54.27349
2021-07-31 03:34:00+00:00,193.0,10.91,198.0,13.24,12.65,47.59359,-54.27349
2021-07-31 03:44:00+00:00,229.0,8.09,227.0,9.81,12.65,47.59359,-54.27349
2021-07-31 03:54:00+00:00,211.0,10.79,217.0,13.32,12.65,47.59359,-54.27349
2021-07-31 04:04:00+00:00,211.0,12.85,214.0,15.09,12.65,47.59359,-54.27349
2021-07-31 04:14:00+00:00,204.0,12.22,204.0,13.57,12.57,47.59359,-54.27349
2021-07-31 04:24:00+00:00,208.0,11.88,212.0,13.35,12.57,47.59359,-54.27349
2021-07-31 04:34:00+00:00,223.0,11.28,227.0,13.45,12.57,47.59359,-54.27349
2021-07-31 04:44:00+00:00,203.0,11.87,212.0,13.64,12.57,47.59359,-54.27349
2021-07-31 04:54:00+00:00,221.0,10.81,224.0,11.66,12.57,47.59359,-54.27349
2021-07-31 05:04:00+00:00,219.0,10.92,216.0,12.17,12.57,47.59359,-54.27349
2021-07-31 05:14:01+00:00,219.0,11.01,219.0,11.71,12.57,47.59359,-54.27349
2021-07-31 05:24:01+00:00,221.0,10.06,223.0,10.74,12.57,47.59359,-54.27349
2021-07-31 05:34:01+00:00,224.0,9.97,223.0,11.14,12.57,47.59359,-54.27349
2021-07-31 05:44:01+00:00,218.0,8.62,217.0,9.77,12.57,47.59359,-54.27349
2021-07-31 05:54:01+00:00,205.0,10.35,199.0,12.15,12.57,47.59359,-54.27349
2021-07-31 06:04:01+00:00,202.0,10.77,198.0,12.08,12.57,47.59359,-54.27349
2021-07-31 06:14:01+00:00,200.0,11.9,197.0,13.78,12.57,47.59359,-54.27349
2021-07-31 06:24:01+00:00,201.0,11.76,197.0,13.19,12.57,47.59359,-54.27349
2021-07-31 06:34:01+00:00,200.0,11.12,199.0,12.8,12.57,47.59359,-54.27349
2021-07-31 06:44:01+00:00,206.0,10.83,204.0,13.51,12.57,47.59359,-54.27349
2021-07-31 06:54:01+00:00,211.0,8.97,208.0,10.91,12.57,47.59359,-54.27349
2021-07-31 07:04:01+00:00,211.0,9.11,206.0,11.23,12.57,47.59359,-54.27349
2021-07-31 07:14:01+00:00,216.0,9.21,213.0,10.97,12.49,47.59359,-54.27349
2021-07-31 07:24:01+00:00,216.0,8.81,215.0,10.71,12.49,47.59359,-54.27349
2021-07-31 07:34:01+00:00,207.0,8.78,209.0,10.11,12.49,47.59359,-54.27349
2021-07-31 07:44:01+00:00,204.0,8.74,202.0,10.04,12.49,47.59359,-54.27349
2021-07-31 07:54:01+00:00,204.0,8.28,205.0,10.18,12.49,47.59359,-54.27349
2021-07-31 08:04:01+00:00,192.0,9.26,192.0,10.46,12.49,47.59359,-54.27349
2021-07-31 08:14:01+00:00,199.0,7.34,198.0,9.01,12.49,47.59359,-54.27349
2021-07-31 08:24:01+00:00,250.0,6.25,236.0,6.81,12.49,47.59359,-54.27349
2021-07-31 08:34:01+00:00,228.0,6.52,237.0,8.59,12.49,47.59359,-54.27349
2021-07-31 08:44:01+00:00,205.0,8.46,201.0,10.63,12.49,47.59359,-54.27349
2021-07-31 08:54:01+00:00,195.0,12.89,196.0,14.31,12.49,47.59359,-54.27349
2021-07-31 09:04:01+00:00,211.0,11.79,216.0,13.53,12.49,47.59359,-54.27349
2021-07-31 09:14:00+00:00,200.0,12.75,198.0,15.64,12.41,47.59359,-54.27349
2021-07-31 09:24:00+00:00,193.0,7.43,194.0,8.66,12.41,47.59359,-54.27349
2021-07-31 09:34:00+00:00,197.0,9.32,196.0,10.22,12.41,47.59359,-54.27349
2021-07-31 09:44:00+00:00,194.0,10.26,191.0,11.14,12.41,47.59359,-54.27349
2021-07-31 09:54:00+00:00,185.0,11.14,187.0,12.21,12.41,47.59359,-54.27349
2021-07-31 10:04:00+00:00,187.0,9.37,180.0,10.91,12.41,47.59359,-54.27349
2021-07-31 10:14:01+00:00,195.0,12.98,195.0,14.7,12.41,47.59359,-54.27349
2021-07-31 10:24:01+00:00,199.0,10.83,199.0,12.35,12.41,47.59359,-54.27349
2021-07-31 10:34:01+00:00,200.0,10.99,197.0,12.38,12.41,47.59359,-54.27349
2021-07-31 10:44:01+00:00,193.0,11.48,197.0,13.43,12.41,47.59359,-54.27349
2021-07-31 10:54:01+00:00,195.0,10.45,196.0,11.36,12.41,47.59359,-54.27349
2021-07-31 11:04:01+00:00,210.0,9.65,212.0,11.11,12.41,47.59359,-54.27349
2021-07-31 11:14:00+00:00,195.0,12.03,193.0,13.82,13.05,47.59359,-54.27349
2021-07-31 11:24:00+00:00,196.0,12.21,192.0,13.37,13.05,47.59359,-54.27349
2021-07-31 11:34:00+00:00,191.0,14.88,191.0,17.43,13.05,47.59359,-54.27349
2021-07-31 11:44:00+00:00,194.0,15.26,195.0,16.82,13.05,47.59359,-54.27349
2021-07-31 11:54:00+00:00,192.0,12.9,197.0,14.82,13.05,47.59359,-54.27349
2021-07-31 12:04:00+00:00,199.0,13.65,197.0,15.08,13.05,47.59359,-54.27349
2021-07-31 12:14:01+00:00,203.0,13.85,197.0,15.64,13.05,47.59359,-54.27349
2021-07-31 12:24:01+00:00,211.0,11.97,211.0,13.33,13.05,47.59359,-54.27349
2021-07-31 12:34:01+00:00,212.0,11.02,213.0,12.9,13.05,47.59359,-54.27349
2021-07-31 12:44:01+00:00,206.0,13.24,201.0,15.0,13.05,47.59359,-54.27349
2021-07-31 12:54:01+00:00,208.0,12.73,212.0,15.02,13.05,47.59359,-54.27349
2021-07-31 13:04:01+00:00,213.0,11.69,217.0,13.15,13.05,47.59359,-54.27349
2021-07-31 13:14:01+00:00,208.0,13.59,208.0,15.17,13.29,47.59359,-54.27349
2021-07-31 13:24:01+00:00,220.0,10.47,223.0,12.27,13.29,47.59359,-54.27349
2021-07-31 13:34:01+00:00,214.0,13.43,213.0,15.02,13.29,47.59359,-54.27349
2021-07-31 13:44:01+00:00,213.0,11.79,202.0,13.88,13.29,47.59359,-54.27349
2021-07-31 13:54:01+00:00,217.0,10.9,211.0,12.83,13.29,47.59359,-54.27349
2021-07-31 14:04:01+00:00,217.0,10.44,217.0,12.65,13.29,47.59359,-54.27349
2021-07-31 14:14:01+00:00,216.0,11.23,216.0,13.0,13.84,47.59359,-54.27349
2021-07-31 14:24:01+00:00,216.0,10.99,215.0,12.25,13.84,47.59359,-54.27349
2021-07-31 14:34:01+00:00,215.0,11.83,213.0,14.24,13.84,47.59359,-54.27349
2021-07-31 14:44:01+00:00,217.0,11.62,222.0,13.85,13.84,47.59359,-54.27349
2021-07-31 14:54:01+00:00,218.0,12.36,215.0,13.58,13.84,47.59359,-54.27349
2021-07-31 15:04:01+00:00,214.0,11.85,218.0,14.26,13.84,47.59359,-54.27349
2021-07-31 15:14:00+00:00,214.0,11.88,212.0,14.28,14.24,47.59359,-54.27349
2021-07-31 15:24:00+00:00,213.0,12.67,214.0,14.95,14.24,47.59359,-54.27349
2021-07-31 15:34:00+00:00,214.0,11.97,216.0,13.27,14.24,47.59359,-54.27349
2021-07-31 15:44:00+00:00,217.0,12.81,220.0,14.48,14.24,47.59359,-54.27349
2021-07-31 15:54:00+00:00,214.0,12.77,209.0,15.4,14.24,47.59359,-54.27349
2021-07-31 16:04:00+00:00,217.0,12.21,218.0,14.41,14.24,47.59359,-54.27349
2021-07-31 16:14:01+00:00,213.0,12.12,211.0,14.18,13.84,47.59359,-54.27349
2021-07-31 16:24:01+00:00,213.0,11.18,212.0,12.87,13.84,47.59359,-54.27349
2021-07-31 16:34:01+00:00,224.0,9.75,222.0,11.4,13.84,47.59359,-54.27349
2021-07-31 16:44:01+00:00,253.0,10.97,254.0,12.66,13.84,47.59359,-54.27349
2021-07-31 16:54:01+00:00,258.0,10.41,259.0,11.44,13.84,47.59359,-54.27349
2021-07-31 17:04:01+00:00,256.0,12.64,255.0,15.43,13.84,47.59359,-54.27349
2021-07-31 17:14:01+00:00,259.0,10.35,261.0,12.37,14.24,47.59359,-54.27349
2021-07-31 17:24:01+00:00,254.0,10.61,255.0,12.08,14.24,47.59359,-54.27349
2021-07-31 17:34:01+00:00,258.0,8.39,259.0,9.4,14.24,47.59359,-54.27349
2021-07-31 17:44:01+00:00,252.0,7.9,253.0,9.06,14.24,47.59359,-54.27349
2021-07-31 17:54:01+00:00,231.0,7.77,227.0,9.62,14.24,47.59359,-54.27349
2021-07-31 18:04:01+00:00,209.0,10.35,213.0,11.66,14.24,47.59359,-54.27349
2021-07-31 18:14:01+00:00,210.0,9.97,210.0,11.22,13.84,47.59359,-54.27349
2021-07-31 18:24:01+00:00,207.0,9.6,215.0,10.47,13.84,47.59359,-54.27349
2021-07-31 18:34:01+00:00,211.0,9.85,212.0,11.12,13.84,47.59359,-54.27349
2021-07-31 18:44:01+00:00,211.0,9.82,216.0,10.88,13.84,47.59359,-54.27349
2021-07-31 18:54:01+00:00,211.0,10.39,214.0,11.5,13.84,47.59359,-54.27349
2021-07-31 19:04:01+00:00,212.0,10.74,214.0,12.6,13.84,47.59359,-54.27349
2021-07-31 19:14:01+00:00,217.0,10.65,218.0,12.15,13.92,47.59359,-54.27349
2021-07-31 19:24:01+00:00,220.0,10.89,222.0,12.12,13.92,47.59359,-54.27349
2021-07-31 19:34:01+00:00,214.0,11.19,214.0,12.47,13.92,47.59359,-54.27349
2021-07-31 19:44:01+00:00,216.0,10.57,220.0,12.45,13.92,47.59359,-54.27349
2021-07-31 19:54:01+00:00,219.0,10.32,222.0,11.69,13.92,47.59359,-54.27349
2021-07-31 20:04:01+00:00,217.0,11.38,220.0,12.31,13.92,47.59359,-54.27349
2021-07-31 20:14:01+00:00,215.0,10.78,218.0,12.36,13.76,47.59359,-54.27349
2021-07-31 20:24:01+00:00,217.0,12.35,225.0,13.51,13.76,47.59359,-54.27349
2021-07-31 20:34:01+00:00,218.0,11.38,216.0,12.82,13.76,47.59359,-54.27349
2021-07-31 20:44:01+00:00,220.0,8.88,219.0,9.99,13.76,47.59359,-54.27349
2021-07-31 20:54:01+00:00,228.0,9.91,222.0,11.82,13.76,47.59359,-54.27349
2021-07-31 21:04:01+00:00,229.0,10.44,226.0,12.3,13.76,47.59359,-54.27349
2021-07-31 21:14:01+00:00,226.0,10.45,229.0,11.96,13.68,47.59359,-54.27349
2021-07-31 21:24:01+00:00,219.0,8.33,216.0,9.41,13.68,47.59359,-54.27349
2021-07-31 21:34:01+00:00,228.0,9.83,222.0,12.15,13.68,47.59359,-54.27349
2021-07-31 21:44:01+00:00,231.0,9.64,231.0,11.29,13.68,47.59359,-54.27349
2021-07-31 21:54:01+00:00,232.0,9.5,235.0,10.82,13.68,47.59359,-54.27349
2021-07-31 22:04:01+00:00,230.0,9.54,240.0,12.23,13.68,47.59359,-54.27349
2021-07-31 22:14:01+00:00,233.0,10.71,234.0,12.11,13.44,47.59359,-54.27349
2021-07-31 22:24:01+00:00,232.0,10.96,232.0,12.71,13.44,47.59359,-54.27349
2021-07-31 22:34:01+00:00,230.0,11.8,232.0,14.74,13.44,47.59359,-54.27349
2021-07-31 22:44:01+00:00,229.0,10.51,227.0,12.13,13.44,47.59359,-54.27349
2021-07-31 22:54:01+00:00,229.0,11.68,236.0,15.01,13.44,47.59359,-54.27349
2021-07-31 23:04:01+00:00,231.0,10.73,233.0,13.92,13.44,47.59359,-54.27349
2021-07-31 23:14:01+00:00,233.0,10.97,226.0,13.04,12.97,47.59359,-54.27349
2021-07-31 23:24:01+00:00,235.0,10.65,237.0,12.42,12.97,47.59359,-54.27349
2021-07-31 23:34:01+00:00,232.0,9.93,240.0,11.89,12.97,47.59359,-54.27349
2021-07-31 23:44:01+00:00,233.0,9.87,232.0,11.27,12.97,47.59359,-54.27349
2021-07-31 23:54:01+00:00,233.0,9.67,230.0,10.91,12.97,47.59359,-54.27349
